[[{"header":{"parameterUnit":"m.s-1","parameterCategory":1,"la1":30.2991,"la2":30.254,"lo1":-89.0895,"lo2":-89.0444,"dy":0.0017,"dx":0.0017,"nx":28,"ny":28,"refTime":"2024-10-12T09:00:00:Z","depth":0,"parameterNumber":2,"parameterNumberName":"U-component_of_WINDS"},"data":[0,0,0,0,0,0,0,0,0,0,0,0,0,0,0,0,0,0,0,0,0,0,0,0,0,0,0,0,0,0,0,0,0,0,0,0,0,0,0,0,0,0,0,0,0,0,0,0,0,0,0,0,0,0,0,0,0,0,-1.2788,-1.2788,0,-1.2843,-1.2843,-1.2844,-1.2822,-1.282,-1.2819,-1.2818,-1.2874,-1.2877,-1.288,0,0,0,0,0,0,0,0,0,0,0,0,0,-1.2664,-1.2666,-1.2788,-1.2788,-1.2789,-1.2843,-1.2843,-1.2844,-1.2822,-1.282,-1.2819,-1.2817,-1.2873,-1.2877,-1.288,0,0,0,0,0,0,0,0,0,0,0,0,0,-1.2718,-1.2667,-1.2788,-1.2784,-1.2785,-1.2842,-1.2843,-1.2844,-1.2822,-1.282,-1.2818,-1.2816,-1.2872,-1.2876,-1.288,-1.2944,0,0,-1.2893,-1.2895,0,0,0,0,0,0,0,0,-1.2715,-1.2723,-1.2784,-1.2785,-1.2785,-1.2823,-1.282,-1.2878,-1.2823,-1.2808,-1.2818,-1.2815,-1.2859,-1.2864,-1.2879,-1.2947,-1.295,-1.2893,-1.2896,-1.2897,-1.2899,0,0,0,0,0,0,0,-1.2712,-1.272,-1.2809,-1.2785,-1.2786,-1.278,-1.2786,-1.2831,-1.2844,-1.2809,-1.2808,-1.2814,-1.2859,-1.2875,-1.288,-1.295,-1.2893,-1.2897,-1.2899,-1.2901,-1.3075,-1.3077,0,0,0,0,0,0,-1.2708,-1.2717,-1.2808,-1.2811,-1.2745,-1.2784,-1.279,-1.2813,-1.2843,-1.2846,-1.2816,-1.2813,-1.2869,-1.2875,-1.2882,-1.2959,-1.2897,-1.2901,-1.2903,-1.3073,-1.3075,-1.3078,0,0,0,0,0,0,-1.2705,-1.2716,-1.2805,-1.2764,-1.2775,-1.2788,-1.2814,-1.2815,-1.2831,-1.2848,-1.2851,-1.283,-1.2867,-1.2876,-1.2929,-1.296,-1.2903,-1.2907,-1.307,-1.3073,-1.3076,-1.3113,0,0,0,0,0,0,-1.2702,-1.2715,-1.2739,-1.2765,-1.2777,-1.2852,-1.2816,-1.2818,-1.2838,-1.2835,-1.2862,-1.2865,-1.2867,-1.2923,-1.2933,-1.2965,-1.291,-1.3067,-1.3071,-1.3075,-1.3109,-1.3118,-1.3125,0,0,0,0,0,-1.2697,-1.2748,-1.2741,-1.2752,-1.2808,-1.2854,-1.2861,-1.2862,-1.2841,-1.2865,-1.2877,-1.2864,-1.2955,-1.2929,-1.294,-1.2973,-1.3065,-1.307,-1.3075,-1.3106,-1.3116,-1.3124,0,0,0,0,0,0,-1.2726,-1.2751,-1.2743,-1.2803,-1.2827,-1.285,-1.2881,-1.2872,-1.2902,-1.2898,-1.2898,-1.2905,-1.2959,-1.2972,-1.2942,-1.3037,-1.3007,-1.3014,-1.3027,-1.3037,-1.3044,-1.304,-1.2913,0,0,0,0,0,-1.2739,-1.2774,-1.2794,-1.2845,-1.2857,-1.2867,-1.2887,-1.2886,-1.291,-1.292,-1.2935,-1.2959,-1.2993,-1.3016,-1.3048,-1.3111,-1.3117,-1.314,-1.3148,-1.3154,-1.316,-1.3194,-1.3205,-1.3094,-1.3094,-1.3093,0,0,-1.2767,-1.2785,-1.2807,-1.2851,-1.2869,-1.2906,-1.2876,-1.2915,-1.2942,-1.2926,-1.2977,-1.2989,-1.3016,-1.3074,-1.3101,-1.3086,-1.3192,-1.316,-1.3165,-1.3167,-1.3201,-1.3211,-1.322,-1.3097,-1.3096,-1.3096,0,0,-1.2836,-1.2853,-1.2897,-1.2916,-1.2943,-1.295,-1.2961,-1.2985,-1.2993,-1.3044,-1.3033,-1.3065,-1.3124,-1.3143,-1.3161,-1.3238,-1.3228,-1.3249,-1.3288,-1.3322,-1.3331,-1.3338,-1.3366,-1.3376,-1.3255,-1.3255,-1.3255,0,-1.2867,-1.2921,-1.2921,-1.2962,-1.2982,-1.2969,-1.3014,-1.3032,-1.3069,-1.3083,-1.3067,-1.314,-1.3158,-1.3221,-1.324,-1.3254,-1.3267,-1.3246,-1.3329,-1.3337,-1.3344,-1.3371,-1.3381,-1.3258,-1.3258,-1.3257,-1.3257,0,-1.2958,-1.2996,-1.3028,-1.3064,-1.3088,-1.3131,-1.3138,-1.3162,-1.3159,-1.3167,-1.322,-1.324,-1.3276,-1.3292,-1.3289,-1.3355,-1.3345,-1.3329,-1.3298,-1.3357,-1.3382,-1.3392,-1.3261,-1.326,-1.326,-1.3259,0,0,-1.3045,-1.3081,-1.3093,-1.3109,-1.3139,-1.3168,-1.3211,-1.3247,-1.3267,-1.3293,-1.3329,-1.3379,-1.3365,-1.3385,-1.3385,-1.3415,-1.3475,-1.3395,-1.3396,-1.3409,-1.3548,-1.356,-1.3571,-1.3468,-1.347,-1.3471,-1.3546,0,-1.3116,-1.3191,-1.3193,-1.3261,-1.3296,-1.3284,-1.3321,-1.3344,-1.3353,-1.3384,-1.3394,-1.343,-1.3408,-1.342,-1.3449,-1.3461,-1.3502,-1.3456,-1.3501,-1.3503,-1.3494,-1.3584,-1.3596,-1.3665,-1.3555,-1.3557,-1.3558,0,-1.3209,-1.3238,-1.331,-1.3335,-1.3349,-1.3383,-1.3416,-1.3446,-1.3471,-1.3476,-1.3498,-1.3494,-1.3538,-1.3506,-1.3567,-1.3535,-1.3554,-1.3562,-1.3565,-1.3569,-1.3534,-1.359,-1.3687,-1.3698,-1.3573,-1.3572,-1.3571,0,-1.3266,-1.3323,-1.3373,-1.3387,-1.3418,-1.3441,-1.3455,-1.3478,-1.35,-1.3529,-1.3543,-1.3577,-1.3595,-1.3622,-1.3626,-1.3603,-1.3687,-1.3656,-1.3692,-1.3692,-1.371,-1.3708,-1.3811,-1.3723,-1.3722,-1.3722,-1.3722,0,-1.3345,-1.3389,-1.3399,-1.343,-1.3479,-1.3481,-1.353,-1.3542,-1.3563,-1.3596,-1.3589,-1.362,-1.3625,-1.3657,-1.3662,-1.3711,-1.3719,-1.3724,-1.3725,-1.3725,-1.3724,-1.3737,-1.3732,-1.3725,-1.3724,-1.3724,-1.3723,0,-1.3416,-1.3424,-1.3478,-1.3503,-1.351,-1.3545,-1.3566,-1.3596,-1.3605,-1.3647,-1.3657,-1.367,-1.3708,-1.3716,-1.3761,-1.3764,-1.3823,-1.3819,-1.3814,-1.3813,-1.3849,-1.3845,-1.3963,-1.3979,-1.388,-1.3881,-1.3882,0,-1.3466,-1.3499,-1.3528,-1.3549,-1.3564,-1.3599,-1.3621,-1.3625,-1.3648,-1.368,-1.3706,-1.3743,-1.3773,-1.3834,-1.3848,-1.3883,-1.3879,-1.3918,-1.3884,-1.3883,-1.388,-1.3877,-1.3881,-1.3924,-1.3925,-1.3926,-1.3927,0,-1.3553,-1.3555,-1.3587,-1.3621,-1.3647,-1.3674,-1.3699,-1.3717,-1.3724,-1.3751,-1.379,-1.3813,-1.3859,-1.3896,-1.3931,-1.3945,-1.3938,-1.3938,-1.3948,-1.3948,-1.3944,-1.3946,-1.3831,-1.3935,-1.3934,-1.3933,-1.3933,-1.3933,-1.3615,-1.3644,-1.3669,-1.3705,-1.3724,-1.3748,-1.3777,-1.3789,-1.3822,-1.386,-1.386,-1.3902,-1.3927,-1.3973,-1.399,-1.4023,-1.4011,-1.4026,-1.4029,-1.4033,-1.4036,-1.3939,-1.403,-1.4029,-1.4029,-1.4029,-1.4029,0,-1.3701,-1.3717,-1.375,-1.3785,-1.3814,-1.3804,-1.3832,-1.3856,-1.3893,-1.3917,-1.3947,-1.3992,-1.4028,-1.4045,-1.4081,-1.4104,-1.4102,-1.4114,-1.4112,-1.4115,-1.4045,-1.4033,-1.4115,-1.4115,-1.4115,-1.4115,-1.4115,-1.4115,-1.3749,-1.3799,-1.3805,-1.3864,-1.3879,-1.3921,-1.3937,-1.3959,-1.3978,-1.4029,-1.4059,-1.407,-1.4091,-1.4128,-1.4161,-1.4165,-1.4179,-1.4192,-1.4195,-1.4129,-1.412,-1.4112,-1.41,-1.4195,-1.4195,-1.4262,-1.4263,-1.4263]},{"header":{"parameterUnit":"m.s-1","parameterCategory":1,"la1":30.2991,"la2":30.254,"lo1":-89.0895,"lo2":-89.0444,"dy":0.0017,"dx":0.0017,"nx":28,"ny":28,"refTime":"2024-10-12T09:00:00:Z","depth":0,"parameterNumber":3,"parameterNumberName":"V-component_of_WINDS"},"data":[0,0,0,0,0,0,0,0,0,0,0,0,0,0,0,0,0,0,0,0,0,0,0,0,0,0,0,0,0,0,0,0,0,0,0,0,0,0,0,0,0,0,0,0,0,0,0,0,0,0,0,0,0,0,0,0,0,0,-0.6913,-0.6913,0,-0.6938,-0.6938,-0.6938,-0.6998,-0.6999,-0.7,-0.7001,-0.7025,-0.7025,-0.7024,0,0,0,0,0,0,0,0,0,0,0,0,0,-0.6914,-0.6914,-0.6913,-0.6913,-0.6913,-0.6938,-0.6938,-0.6938,-0.6997,-0.6999,-0.7,-0.7002,-0.7025,-0.7025,-0.7024,0,0,0,0,0,0,0,0,0,0,0,0,0,-0.6924,-0.6914,-0.6912,-0.6946,-0.6949,-0.6937,-0.6938,-0.6938,-0.6997,-0.6999,-0.7001,-0.7003,-0.7025,-0.7025,-0.7024,-0.6982,0,0,-0.7021,-0.7021,0,0,0,0,0,0,0,0,-0.6923,-0.6924,-0.6941,-0.6943,-0.6947,-0.6966,-0.6947,-0.6953,-0.6997,-0.6979,-0.7001,-0.7004,-0.7004,-0.7005,-0.7006,-0.6983,-0.6984,-0.7021,-0.7021,-0.7021,-0.702,0,0,0,0,0,0,0,-0.6922,-0.6923,-0.6922,-0.6941,-0.6945,-0.6959,-0.6962,-0.6949,-0.698,-0.698,-0.6985,-0.6987,-0.7006,-0.7006,-0.7007,-0.6984,-0.7021,-0.7021,-0.702,-0.702,-0.6926,-0.6924,0,0,0,0,0,0,-0.6917,-0.6922,-0.6922,-0.6923,-0.6939,-0.6957,-0.6961,-0.6958,-0.6981,-0.6986,-0.6985,-0.699,-0.7007,-0.7007,-0.7008,-0.6958,-0.7021,-0.702,-0.7019,-0.6928,-0.6926,-0.6924,0,0,0,0,0,0,-0.6917,-0.6917,-0.6921,-0.6924,-0.6925,-0.6955,-0.6952,-0.6958,-0.6958,-0.6985,-0.699,-0.698,-0.7008,-0.7009,-0.6987,-0.696,-0.7019,-0.7019,-0.6931,-0.6928,-0.6925,-0.686,0,0,0,0,0,0,-0.6917,-0.6916,-0.6901,-0.6923,-0.6925,-0.69,-0.695,-0.6957,-0.6957,-0.6962,-0.6981,-0.6986,-0.701,-0.6988,-0.6987,-0.696,-0.7018,-0.6933,-0.6929,-0.6926,-0.6864,-0.6855,-0.6847,0,0,0,0,0,-0.6917,-0.6881,-0.69,-0.6899,-0.6906,-0.6899,-0.69,-0.6929,-0.6954,-0.6939,-0.6956,-0.6985,-0.6964,-0.6986,-0.6984,-0.6957,-0.6935,-0.693,-0.6926,-0.6868,-0.6857,-0.6847,0,0,0,0,0,0,-0.6855,-0.6885,-0.6906,-0.6877,-0.6885,-0.6909,-0.689,-0.6915,-0.6916,-0.6921,-0.6957,-0.696,-0.6934,-0.6944,-0.6968,-0.6917,-0.6954,-0.6949,-0.6911,-0.69,-0.6891,-0.6888,-0.7017,0,0,0,0,0,-0.6838,-0.6829,-0.6856,-0.6828,-0.6831,-0.686,-0.6857,-0.6879,-0.6888,-0.6892,-0.6908,-0.6915,-0.691,-0.6906,-0.6903,-0.6867,-0.6871,-0.6847,-0.6838,-0.6831,-0.6826,-0.6806,-0.6795,-0.6909,-0.6909,-0.6909,0,0,-0.6802,-0.6818,-0.681,-0.6816,-0.6825,-0.6814,-0.6862,-0.6849,-0.6842,-0.689,-0.687,-0.6882,-0.6893,-0.6864,-0.6852,-0.6871,-0.6795,-0.6825,-0.6819,-0.6818,-0.68,-0.6789,-0.678,-0.6906,-0.6906,-0.6907,0,0,-0.6732,-0.6744,-0.6721,-0.6729,-0.6742,-0.6761,-0.6755,-0.6776,-0.6785,-0.6767,-0.6802,-0.6794,-0.6784,-0.679,-0.6792,-0.6724,-0.675,-0.6722,-0.6675,-0.6655,-0.6646,-0.6638,-0.6612,-0.6603,-0.6717,-0.6717,-0.6717,0,-0.6686,-0.6673,-0.6706,-0.6691,-0.6691,-0.6735,-0.6712,-0.6718,-0.6728,-0.6727,-0.675,-0.6738,-0.6749,-0.6721,-0.6704,-0.6705,-0.6699,-0.6719,-0.6645,-0.6638,-0.6631,-0.6606,-0.6597,-0.6713,-0.6714,-0.6714,-0.6714,0,-0.6615,-0.6605,-0.6585,-0.6594,-0.6593,-0.6574,-0.6603,-0.6598,-0.662,-0.6636,-0.6616,-0.663,-0.663,-0.6626,-0.6647,-0.66,-0.6612,-0.6639,-0.6677,-0.6616,-0.6593,-0.6584,-0.6708,-0.6709,-0.671,-0.6711,0,0,-0.6505,-0.6533,-0.6525,-0.653,-0.6547,-0.654,-0.6522,-0.6523,-0.6517,-0.6523,-0.6508,-0.6499,-0.6524,-0.6526,-0.6549,-0.6532,-0.6475,-0.6561,-0.6562,-0.6543,-0.6422,-0.64,-0.6389,-0.6493,-0.6492,-0.649,-0.6421,0,-0.6438,-0.6409,-0.6438,-0.6404,-0.6394,-0.6436,-0.6421,-0.6429,-0.6444,-0.6438,-0.6455,-0.6447,-0.6482,-0.6483,-0.6468,-0.6485,-0.6451,-0.649,-0.6478,-0.6477,-0.6472,-0.6378,-0.6355,-0.6288,-0.6412,-0.6411,-0.641,0,-0.6355,-0.6357,-0.6322,-0.6341,-0.6338,-0.6324,-0.6326,-0.632,-0.633,-0.6342,-0.6344,-0.6371,-0.6354,-0.6393,-0.6369,-0.6396,-0.6393,-0.64,-0.6398,-0.6396,-0.6438,-0.6371,-0.6268,-0.6257,-0.6397,-0.6398,-0.6399,0,-0.6276,-0.6271,-0.6249,-0.6251,-0.6273,-0.6262,-0.6271,-0.6283,-0.6281,-0.6283,-0.6282,-0.6282,-0.6281,-0.628,-0.6306,-0.6332,-0.6278,-0.632,-0.6287,-0.6286,-0.6272,-0.6272,-0.6164,-0.6273,-0.6273,-0.6273,-0.6274,0,-0.6197,-0.6173,-0.6213,-0.6199,-0.6173,-0.6207,-0.618,-0.6193,-0.6204,-0.6192,-0.6229,-0.6217,-0.6253,-0.6245,-0.6265,-0.6242,-0.6242,-0.625,-0.6255,-0.6246,-0.6244,-0.6243,-0.6247,-0.6271,-0.6271,-0.6272,-0.6272,0,-0.6104,-0.613,-0.6108,-0.6131,-0.6136,-0.6116,-0.6135,-0.6123,-0.6141,-0.6126,-0.6124,-0.6152,-0.6144,-0.617,-0.6167,-0.6181,-0.6145,-0.6159,-0.6141,-0.6145,-0.611,-0.6112,-0.5996,-0.5982,-0.6101,-0.61,-0.6099,0,-0.605,-0.6033,-0.6054,-0.6049,-0.6056,-0.6048,-0.6046,-0.6079,-0.6075,-0.6085,-0.6071,-0.6067,-0.6065,-0.605,-0.6069,-0.6067,-0.608,-0.6039,-0.6079,-0.607,-0.6077,-0.6077,-0.6074,-0.603,-0.6029,-0.6027,-0.6026,0,-0.5952,-0.5966,-0.5963,-0.5963,-0.596,-0.5962,-0.5967,-0.596,-0.5995,-0.5989,-0.5982,-0.5981,-0.5977,-0.5972,-0.5973,-0.5981,-0.6009,-0.6014,-0.6006,-0.5995,-0.5984,-0.5988,-0.6117,-0.6016,-0.6017,-0.6018,-0.6018,-0.6019,-0.5876,-0.5862,-0.5874,-0.5869,-0.5876,-0.5879,-0.5868,-0.5885,-0.588,-0.5879,-0.5899,-0.5887,-0.5898,-0.5902,-0.5908,-0.5899,-0.5917,-0.5906,-0.5903,-0.5899,-0.5892,-0.5987,-0.5899,-0.59,-0.59,-0.59,-0.59,0,-0.5778,-0.5788,-0.5783,-0.5788,-0.5784,-0.5812,-0.5818,-0.5812,-0.5801,-0.5809,-0.5806,-0.5797,-0.5792,-0.5811,-0.5808,-0.5797,-0.5809,-0.5795,-0.5795,-0.5796,-0.5876,-0.5883,-0.5784,-0.5784,-0.5784,-0.5784,-0.5784,-0.5785,-0.5727,-0.5704,-0.5719,-0.57,-0.571,-0.5699,-0.57,-0.5703,-0.5709,-0.5697,-0.5693,-0.5706,-0.5718,-0.5716,-0.5712,-0.5718,-0.5714,-0.5695,-0.5705,-0.5779,-0.579,-0.5801,-0.5807,-0.5694,-0.5694,-0.5625,-0.5624,-0.5623]}]]